Weather in Engels

Russia / Saratov Oblast     51°29′07″N   46°07′36″E
temp.,
°C
wind,
m/s
gust,
m/s
humid.,
%
clouds,
%
prec.,
mm/h
press.,
hPa
HPBL,
m
11 april, sun
sun1101:00+5n3595100 0.0 102080
04:00+5n349596 0.0 102162
07:00+4nnw3597100 0.0 102376
10:00+8nne4588100 0.0 1024185
13:00+13nne4577100 0.0 1024357
16:00+17nne2457100 0.0 1024472
19:00+14n4574100 0.0 102462
22:00+11nne5788100 0.0 102588
12 april, mon
mon1201:00+10ene348656 0.0 102647
04:00+9ene338399 0.0 102726
07:00+9ene338062 0.0 102830
10:00+14e465619 0.0 1029305
13:00+19ese574242 0.0 1028794
16:00+18ese5743100 0.0 10281040
19:00+16e475817 0.0 1028102
22:00+12ese4106888 0.0 1029136
13 april, tue
tue1301:00+10ese46695 0.0 102987
04:00+8e347016 0.0 102965
07:00+7ne33717 0.0 103049
10:00+13e35505 0.0 1030379
13:00+17ese45378 0.0 1029885
16:00+18ese4532100 0.0 10271192
19:00+16ese34450 0.0 102643
22:00+12ese34550 0.0 102748
14 april, wed
wed1401:00+10ese35660 0.0 102773
04:00+9e227093 0.0 102613
07:00+8ene337397 0.0 102640
10:00+13e355260 0.0 1025354
13:00+17ese453614 0.0 1024918
16:00+19ese453219 0.0 10221255
19:00+16ese344464 0.0 102140
22:00+13ese345471 0.0 102139
15 april, thu
thu1501:00+11se225998 0.0 102130
04:00+9ene226463 0.0 102110
07:00+9e226957 0.0 102024
10:00+13ese235198 0.0 1020331
13:00+16ese233770 0.0 1018978
16:00+17ssw123399 0.0 10161318
19:00+15wnw224462 0.0 101520
22:00+13wnw11465 0.0 101410